Location: Unspecified
(52.4292°N, 19.3359°E)
Time: 23:47:16
(UTC+02:00)

SR - Pass Details

Date: 01 June 2024
Orbit: 580 x 858 km, 66.7° (Epoch: 12 June)

Event Time Altitude Azimuth Distance (km) Brightness Sun altitude
Rises 15:32:44 0° 188° (S) 3,195 ? 45.4°
Reaches altitude 10° 15:35:23 10° 178° (S) 2,226 ? 45.0°
Maximum altitude 15:39:49 32° 117° (ESE) 1,193 ? 44.4°
Drops below altitude 10° 15:43:59 10° 55° (NE) 2,080 ? 43.8°
Sets 15:46:23 0° 45° (NE) 2,953 ? 43.5°
